[[{"header":{"parameterUnit":"m.s-1","parameterCategory":1,"la1":30.2991,"la2":30.254,"lo1":-89.0895,"lo2":-89.0444,"dy":0.0017,"dx":0.0017,"nx":28,"ny":28,"refTime":"2024-05-24T09:00:00:Z","depth":0,"parameterNumber":2,"parameterNumberName":"U-component_of_WINDS"},"data":[0,0,0,0,0,0,0,0,0,0,0,0,0,0,0,0,0,0,0,0,0,0,0,0,0,0,0,0,0,0,0,0,0,0,0,0,0,0,0,0,0,0,0,0,0,0,0,0,0,0,0,0,0,0,0,0,0,0,1.556,1.556,0,1.5589,1.559,1.559,1.5555,1.5554,1.5553,1.5551,1.5583,1.5585,1.5587,0,0,0,0,0,0,0,0,0,0,0,0,0,1.5473,1.5474,1.556,1.556,1.5561,1.5589,1.559,1.559,1.5555,1.5554,1.5552,1.5551,1.5583,1.5585,1.5588,0,0,0,0,0,0,0,0,0,0,0,0,0,1.5507,1.5475,1.556,1.5547,1.5546,1.5589,1.559,1.559,1.5556,1.5554,1.5552,1.555,1.5582,1.5585,1.5588,1.5646,0,0,1.5597,1.5599,0,0,0,0,0,0,0,0,1.5505,1.5511,1.5548,1.5548,1.5547,1.5567,1.5571,1.5609,1.5556,1.5552,1.5551,1.5549,1.558,1.5583,1.5593,1.5648,1.5649,1.5598,1.56,1.5601,1.5602,0,0,0,0,0,0,0,1.5503,1.5509,1.5572,1.5549,1.5548,1.5539,1.5542,1.5578,1.5577,1.5552,1.555,1.5554,1.5579,1.559,1.5593,1.565,1.5598,1.56,1.5602,1.5604,1.5752,1.5754,0,0,0,0,0,0,1.5502,1.5507,1.5571,1.5572,1.5521,1.5542,1.5545,1.5562,1.5576,1.5576,1.5555,1.5552,1.5585,1.559,1.5594,1.5661,1.5601,1.5604,1.5606,1.575,1.5752,1.5754,0,0,0,0,0,0,1.55,1.5508,1.5569,1.5539,1.5546,1.5546,1.5565,1.5564,1.5575,1.5578,1.5578,1.5567,1.5584,1.559,1.5633,1.5662,1.5605,1.5608,1.5747,1.5751,1.5753,1.5798,0,0,0,0,0,0,1.5498,1.5508,1.553,1.554,1.5548,1.5608,1.5567,1.5566,1.558,1.5576,1.5589,1.5589,1.5583,1.5628,1.5636,1.5665,1.5611,1.5745,1.5749,1.5752,1.5794,1.5802,1.5809,0,0,0,0,0,1.5495,1.5542,1.5531,1.5539,1.5576,1.561,1.5614,1.5606,1.5583,1.5605,1.5607,1.5589,1.5658,1.5633,1.5641,1.5672,1.5743,1.5748,1.5752,1.579,1.5801,1.5809,0,0,0,0,0,0,1.5537,1.5544,1.5531,1.5583,1.5596,1.5604,1.5632,1.5617,1.5637,1.5633,1.5621,1.5625,1.567,1.5676,1.5648,1.5728,1.5696,1.5703,1.5723,1.5733,1.574,1.5737,1.5613,0,0,0,0,0,1.5552,1.5579,1.5583,1.5629,1.5636,1.5633,1.5647,1.5639,1.5652,1.5657,1.5663,1.5676,1.57,1.5717,1.574,1.5795,1.5796,1.582,1.5827,1.5834,1.5839,1.5866,1.5876,1.577,1.577,1.577,0,0,1.5584,1.5591,1.5609,1.5637,1.5646,1.5673,1.5637,1.5669,1.5689,1.5662,1.5703,1.5707,1.5721,1.577,1.5791,1.5776,1.5869,1.584,1.5845,1.5847,1.5872,1.5882,1.5891,1.5773,1.5772,1.5772,0,0,1.5656,1.5665,1.5702,1.5711,1.5725,1.5722,1.5731,1.574,1.5742,1.5782,1.5762,1.5786,1.5829,1.5839,1.585,1.5923,1.5907,1.5931,1.5971,1.5998,1.6006,1.6014,1.6038,1.6047,1.5937,1.5937,1.5937,0,1.5694,1.5735,1.5724,1.5755,1.5768,1.5744,1.5781,1.5791,1.5811,1.582,1.5802,1.5854,1.5862,1.5912,1.5929,1.5939,1.5948,1.5929,1.6006,1.6013,1.602,1.6043,1.6052,1.594,1.5939,1.5939,1.5939,0,1.578,1.5808,1.5837,1.5855,1.5871,1.5906,1.5899,1.5917,1.5907,1.5906,1.5946,1.5955,1.5978,1.5989,1.5981,1.6037,1.6026,1.6008,1.5975,1.6033,1.6054,1.6063,1.5943,1.5942,1.5942,1.5941,0,0,1.588,1.589,1.5901,1.5908,1.592,1.5942,1.5975,1.5996,1.601,1.6025,1.6052,1.6087,1.6069,1.6081,1.6074,1.6097,1.6152,1.6075,1.6075,1.6088,1.6213,1.6226,1.6236,1.6142,1.6143,1.6145,1.6211,0,1.595,1.6006,1.5996,1.6051,1.6075,1.6052,1.608,1.6091,1.609,1.6111,1.6111,1.6136,1.6111,1.6118,1.614,1.6141,1.6177,1.6136,1.6165,1.6166,1.6161,1.6248,1.6263,1.6325,1.6219,1.6221,1.6222,0,1.604,1.6056,1.6113,1.6118,1.6129,1.6154,1.6172,1.6193,1.6203,1.6201,1.6214,1.6201,1.6233,1.6201,1.6244,1.6216,1.6227,1.6229,1.6232,1.6233,1.6197,1.6251,1.6345,1.6353,1.6235,1.6234,1.6233,0,1.6105,1.6141,1.6179,1.6186,1.6194,1.6213,1.6217,1.6226,1.6238,1.6254,1.6262,1.6282,1.6293,1.6308,1.63,1.6278,1.6344,1.6312,1.6343,1.6343,1.6357,1.6356,1.6453,1.6367,1.6367,1.6367,1.6366,0,1.6184,1.6219,1.6208,1.6231,1.6269,1.6257,1.6295,1.6297,1.6304,1.6327,1.6309,1.633,1.632,1.634,1.6335,1.637,1.6376,1.6375,1.6372,1.6376,1.6375,1.6382,1.6377,1.6369,1.6369,1.6368,1.6368,0,1.6263,1.6257,1.6296,1.63,1.6302,1.6329,1.6333,1.6354,1.6352,1.638,1.6386,1.6383,1.6406,1.64,1.6427,1.6423,1.6467,1.646,1.6463,1.6461,1.6491,1.6488,1.6595,1.6607,1.6514,1.6515,1.6516,0,1.6313,1.6339,1.6345,1.6358,1.6364,1.6386,1.6398,1.6387,1.6401,1.6414,1.6433,1.6454,1.6471,1.6509,1.6509,1.6528,1.6521,1.6557,1.6524,1.6525,1.6519,1.6517,1.6519,1.6563,1.6564,1.6565,1.6566,0,1.6402,1.6397,1.6415,1.6432,1.6447,1.646,1.6471,1.6484,1.6473,1.6489,1.6512,1.6525,1.655,1.6571,1.6588,1.6593,1.6577,1.6576,1.6584,1.6587,1.6587,1.6586,1.6479,1.6574,1.6573,1.6573,1.6572,1.6572,1.6467,1.6488,1.6495,1.6515,1.6522,1.6533,1.6552,1.6551,1.657,1.6589,1.6581,1.6607,1.6615,1.6637,1.6643,1.6663,1.6649,1.6661,1.6664,1.6667,1.667,1.6584,1.6666,1.6666,1.6666,1.6666,1.6666,0,1.6553,1.6556,1.6575,1.659,1.6606,1.6589,1.66,1.6615,1.6637,1.6646,1.6662,1.6687,1.6707,1.6708,1.6726,1.6742,1.6735,1.6747,1.6745,1.6746,1.6682,1.6672,1.6752,1.6752,1.6752,1.6752,1.6752,1.6752,1.66,1.6634,1.663,1.6667,1.6669,1.6694,1.6701,1.671,1.6717,1.6746,1.6762,1.6762,1.6767,1.6785,1.6802,1.6802,1.6809,1.6823,1.682,1.676,1.6751,1.6743,1.6734,1.6825,1.6825,1.6882,1.6883,1.6883]},{"header":{"parameterUnit":"m.s-1","parameterCategory":1,"la1":30.2991,"la2":30.254,"lo1":-89.0895,"lo2":-89.0444,"dy":0.0017,"dx":0.0017,"nx":28,"ny":28,"refTime":"2024-05-24T09:00:00:Z","depth":0,"parameterNumber":3,"parameterNumberName":"V-component_of_WINDS"},"data":[0,0,0,0,0,0,0,0,0,0,0,0,0,0,0,0,0,0,0,0,0,0,0,0,0,0,0,0,0,0,0,0,0,0,0,0,0,0,0,0,0,0,0,0,0,0,0,0,0,0,0,0,0,0,0,0,0,0,4.7245,4.7246,0,4.7383,4.7385,4.7386,4.7369,4.7367,4.7364,4.7362,4.7498,4.7503,4.7509,0,0,0,0,0,0,0,0,0,0,0,0,0,4.6958,4.6963,4.7244,4.7246,4.7248,4.7383,4.7385,4.7387,4.7369,4.7366,4.7364,4.7361,4.7496,4.7503,4.7509,0,0,0,0,0,0,0,0,0,0,0,0,0,4.7088,4.6965,4.7244,4.7256,4.7258,4.7382,4.7385,4.7387,4.737,4.7366,4.7363,4.736,4.7494,4.7502,4.751,4.763,0,0,4.7536,4.754,0,0,0,0,0,0,0,0,4.7081,4.7098,4.7252,4.7255,4.7258,4.7355,4.7333,4.7468,4.7371,4.7327,4.7362,4.7358,4.7453,4.7464,4.7497,4.7636,4.7642,4.7537,4.7542,4.7546,4.7548,0,0,0,0,0,0,0,4.7072,4.7092,4.7299,4.7254,4.7258,4.7252,4.7266,4.7359,4.7407,4.7331,4.733,4.7347,4.7453,4.7489,4.75,4.7644,4.7537,4.7544,4.755,4.7553,4.7887,4.789,0,0,0,0,0,0,4.7061,4.7085,4.7295,4.7303,4.7159,4.726,4.7276,4.7327,4.7406,4.7415,4.735,4.7345,4.7476,4.7491,4.7505,4.765,4.7546,4.7554,4.7559,4.7883,4.7887,4.7891,0,0,0,0,0,0,4.7055,4.708,4.7289,4.7194,4.722,4.7268,4.7326,4.7332,4.7368,4.742,4.7428,4.7378,4.7474,4.7493,4.7599,4.7655,4.7558,4.7565,4.7878,4.7884,4.7889,4.7942,0,0,0,0,0,0,4.7046,4.7077,4.7125,4.7195,4.7225,4.7383,4.7329,4.7337,4.7383,4.7379,4.7449,4.7457,4.7473,4.7587,4.7608,4.7665,4.7572,4.7874,4.7881,4.7888,4.7935,4.7948,4.796,0,0,0,0,0,4.7036,4.7133,4.7128,4.7153,4.7287,4.7387,4.7404,4.7422,4.7388,4.7435,4.7468,4.7455,4.7645,4.7598,4.7621,4.7682,4.787,4.7879,4.7887,4.793,4.7946,4.7959,0,0,0,0,0,0,4.7067,4.7143,4.7137,4.7261,4.7318,4.7384,4.7444,4.7439,4.7505,4.7498,4.7516,4.7532,4.7639,4.7671,4.7617,4.7801,4.7753,4.7766,4.7777,4.7793,4.7804,4.7795,4.7579,0,0,0,0,0,4.7088,4.7165,4.7226,4.7329,4.7358,4.7396,4.744,4.745,4.7508,4.7532,4.7573,4.7629,4.7701,4.7748,4.7818,4.7939,4.7953,4.7992,4.8004,4.8014,4.8025,4.8091,4.8109,4.7919,4.7919,4.7919,0,0,4.7132,4.7183,4.7231,4.7336,4.7382,4.7459,4.7416,4.75,4.7557,4.7544,4.7648,4.7679,4.7742,4.7857,4.7909,4.7886,4.8081,4.8024,4.8032,4.8038,4.8101,4.8119,4.8135,4.7925,4.7924,4.7923,0,0,4.7253,4.73,4.739,4.7437,4.7506,4.7531,4.7552,4.7619,4.7641,4.7745,4.7736,4.7803,4.7927,4.7973,4.8012,4.8148,4.8137,4.817,4.8234,4.8297,4.8312,4.8326,4.8374,4.8391,4.8181,4.8181,4.8181,0,4.7299,4.7418,4.7437,4.7522,4.7568,4.7561,4.7651,4.7695,4.7782,4.7813,4.7787,4.7943,4.7984,4.8109,4.8142,4.8174,4.8198,4.8163,4.8309,4.8323,4.8335,4.8381,4.84,4.8185,4.8184,4.8184,4.8183,0,4.747,4.7552,4.7616,4.7704,4.7757,4.7844,4.7874,4.7925,4.7929,4.7955,4.8061,4.8111,4.819,4.822,4.8224,4.8344,4.8328,4.8305,4.8257,4.8357,4.84,4.8418,4.819,4.8188,4.8187,4.8186,0,0,4.7615,4.7712,4.7735,4.7774,4.785,4.7912,4.7998,4.8077,4.812,4.818,4.8251,4.8356,4.8336,4.838,4.8389,4.8445,4.8549,4.8415,4.8416,4.8438,4.8684,4.8701,4.8721,4.8542,4.8545,4.8548,4.8678,0,4.7743,4.7898,4.7917,4.8054,4.8129,4.8122,4.8197,4.825,4.8276,4.8342,4.837,4.8444,4.8411,4.8438,4.8493,4.8525,4.8598,4.8515,4.8607,4.861,4.8592,4.8744,4.8763,4.8884,4.8696,4.8698,4.8701,0,4.7915,4.7982,4.8126,4.8191,4.8223,4.829,4.8363,4.8427,4.8486,4.8501,4.855,4.8552,4.8638,4.8586,4.8704,4.8647,4.8685,4.8705,4.871,4.872,4.8662,4.8758,4.8923,4.8941,4.8728,4.8725,4.8724,0,4.8006,4.8132,4.8235,4.8268,4.8346,4.8393,4.8427,4.8483,4.8529,4.8592,4.8622,4.8694,4.8733,4.8787,4.8807,4.8767,4.8923,4.8873,4.8937,4.8937,4.8971,4.8969,4.9145,4.8995,4.8994,4.8994,4.8994,0,4.8148,4.8237,4.8277,4.834,4.8439,4.8458,4.8554,4.8585,4.8635,4.8702,4.87,4.8763,4.8785,4.885,4.8866,4.8961,4.8978,4.8991,4.8995,4.8992,4.8991,4.9018,4.901,4.8999,4.8998,4.8997,4.8996,0,4.8268,4.8298,4.841,4.8474,4.8493,4.8562,4.8616,4.8676,4.8701,4.8786,4.8807,4.8846,4.8923,4.8948,4.9041,4.9051,4.9162,4.9157,4.9143,4.9143,4.9206,4.92,4.9406,4.9434,4.9265,4.9267,4.9268,0,4.8357,4.8425,4.8497,4.8543,4.858,4.8654,4.8701,4.8721,4.877,4.8842,4.8893,4.897,4.9033,4.9156,4.9191,4.9261,4.9258,4.9326,4.9269,4.9264,4.9259,4.9256,4.9262,4.9337,4.9338,4.934,4.9341,0,4.8511,4.8523,4.8593,4.8668,4.8725,4.8784,4.8841,4.8878,4.8906,4.8961,4.9041,4.909,4.9185,4.9261,4.9333,4.9365,4.9357,4.9358,4.9377,4.9376,4.9365,4.9372,4.9172,4.9354,4.9353,4.9352,4.9351,4.935,4.8619,4.8679,4.8739,4.8816,4.8861,4.8915,4.8974,4.9007,4.9075,4.9156,4.9162,4.9249,4.9303,4.9399,4.9435,4.9501,4.9481,4.9508,4.9515,4.9522,4.9527,4.9354,4.9514,4.9513,4.9513,4.9513,4.9513,0,4.8773,4.8811,4.8882,4.8963,4.9023,4.9013,4.9075,4.9125,4.9202,4.9255,4.9317,4.9408,4.9481,4.9522,4.9594,4.9639,4.9637,4.9657,4.9654,4.9662,4.954,4.9517,4.9657,4.9657,4.9657,4.9657,4.9657,4.9657,4.8861,4.8962,4.8981,4.9103,4.914,4.9226,4.9263,4.9311,4.9353,4.9456,4.9518,4.9544,4.9591,4.9667,4.9733,4.9743,4.9769,4.9792,4.9799,4.9685,4.967,4.9656,4.9635,4.9797,4.9798,4.9916,4.9917,4.9917]}]]